Location: Sevilla
(37.3933°N, 5.9839°W)
Time: 13:26:52
(UTC+02:00)

A-11 Canister half - Visible Passes

Search period start: 21 June 2024 00:00
Search period end: 01 July 2024 00:00
Orbit: 1514 x 1685 km, 47.2° (Epoch: 20 June)

Date Brightness Start Highest point End Pass type
(mag) Time Alt. Az. Time Alt. Az. Time Alt. Az.
21 Jun 9.0 01:59:43 10° WNW 02:09:34 79° NNE 02:16:13 23° ESE visible
21 Jun 9.3 04:05:24 10° WNW 04:13:55 37° SW 04:14:15 37° SW visible
21 Jun 9.9 23:30:47 10° WNW 23:40:22 48° N 23:49:39 10° ENE visible
22 Jun 9.1 01:36:40 10° WNW 01:46:33 76° NNE 01:52:48 25° ESE visible
22 Jun 9.3 03:42:16 10° WNW 03:50:53 40° SW 03:50:53 40° SW visible
22 Jun 9.9 23:07:39 10° WNW 23:17:16 48° N 23:26:34 10° ENE visible
23 Jun 9.1 01:13:38 10° WNW 01:23:31 73° NNE 01:29:49 25° ESE visible
23 Jun 9.2 03:19:11 10° WNW 03:27:54 43° SW 03:27:54 43° SW visible
23 Jun 10.0 22:44:32 10° WNW 22:54:10 48° N 23:03:30 10° ENE visible
24 Jun 9.2 00:50:35 10° WNW 01:00:30 71° NNE 01:07:03 23° ESE visible
24 Jun 9.2 02:56:05 10° WNW 03:05:10 46° SW 03:05:10 46° SW visible
24 Jun 10.0 22:21:24 10° WNW 22:31:04 48° N 22:40:26 10° ENE visible
25 Jun 9.2 00:27:32 10° WNW 00:37:28 68° NNE 00:44:27 21° ESE visible
25 Jun 9.1 02:33:00 10° WNW 02:42:14 50° SW 02:42:35 49° SW visible
25 Jun 10.0 21:58:16 10° WNW 22:07:57 48° N 22:17:22 10° ENE visible
26 Jun 9.3 00:04:29 10° WNW 00:14:25 66° NNE 00:21:58 18° ESE visible
26 Jun 9.1 02:09:55 10° WNW 02:19:17 53° SW 02:20:06 52° SSW visible
26 Jun 9.4 23:41:26 10° WNW 23:51:21 64° NNE 23:59:35 15° ESE visible
27 Jun 9.0 01:46:51 10° WNW 01:56:21 56° SW 01:57:44 52° SSW visible
27 Jun 9.4 23:18:22 10° WNW 23:28:18 62° NNE 23:37:17 12° E visible
28 Jun 9.0 01:23:47 10° WNW 01:33:24 60° SW 01:35:26 51° S visible
28 Jun 10.7 03:32:10 10° W 03:33:35 12° W 03:33:35 12° W visible
28 Jun 9.5 22:55:18 10° WNW 23:05:13 60° NNE 23:14:47 10° E visible
29 Jun 9.0 01:00:44 10° WNW 01:10:27 64° SW 01:13:12 48° SSE visible
29 Jun 10.6 03:08:36 10° W 03:11:22 15° WSW 03:11:22 15° WSW visible
29 Jun 9.6 22:32:13 10° WNW 22:42:09 58° NNE 22:51:43 10° E visible
30 Jun 9.0 00:37:40 10° WNW 00:47:29 67° SW 00:51:02 43° SSE visible
30 Jun 10.5 02:45:09 10° W 02:49:12 17° WSW 02:49:12 17° WSW visible
30 Jun 9.6 22:09:09 10° WNW 22:19:04 57° NNE 22:28:39 10° E visible
